"SCET";"TARGET";"ELECTRON_DENSITY";"ERROR_FLAG";"ELECTRON_DENSITY_ERROR";"FREQ_FCE";"MEASURED_VALUE";"MEASURED_ITEM";"FREQ_PLASMA";"FREQ_UPPER_HYBRID";"FREQ_R_EQUALS_ZERO";"FREQ_L_EQUALS_ZERO";"ORBIT_NUMBER";"SATURN_RADIUS";"SATURN_IAU_LONGITUDE";"SATURN_SLS4_S_LONGITUDE";"SATURN_SLS4_N_LONGITUDE";"SATURN_SLS5_S_LONGITUDE";"SATURN_SLS5_N_LONGITUDE";"SATURN_LOCAL_TIME";"SATURN_KRONOGRAPHIC_LATITUDE";"SATURN_MAGNETIC_LATITUDE";"SATURN_L";"SATURN_L_OFFSET";"SATURN_SOLAR_EQUATORIAL_X";"SATURN_SOLAR_EQUATORIAL_Y";"SATURN_SOLAR_EQUATORIAL_Z";"SATURN_ALTITUDE";"ENCELADUS_ENCOUNTER_NUMBER";"ENCELADUS_RADIUS";"ENCELADUS_COROTATIONAL_X";"ENCELADUS_COROTATIONAL_Y";"ENCELADUS_COROTATIONAL_Z";"ENCELADUS_TRUE_ANOMALY";"ENCELADUS_PERIAPSIS_TIME";"JUPITER_RADIUS";"JUPITER_SYSTEMIII_LONGITUDE";"JUPITER_MAGNETIC_LATITUDE";"JUPITER_MAGNETIC_LOCAL_TIME";"JUPITER_L";"IO_PHASE";"EARTH_RADIUS";"EARTH_MAGNETIC_LATITUDE";"EARTH_LOCAL_TIME";"EARTH_L"
"[UTC]";"[0=Saturn, 1=Enceladus, 2=Jupiter, 3=Earth]";"[cm-3]";"[0=automated, 1=manual]";"[normalized density error]";"[Hz]";"[Hz]";"[0=upper hybrid frequency, 1=plasma frequency cutoff]";"[Hz]";"[Hz]";"[Hz]";"[Hz}";"[0, A, B, C, 3, 4, ... , 292, 293]";"[Rs where 1Rs=60268km]";"[degrees]";"[degrees]";"[degrees]";"[degrees]";"[degrees]";"[hours]";"[degrees]";"[degrees where offset=2293km north]";"[Rs where 1Rs=60268km]";"[Rs where 1Rs=60268km and offset=2293km north]";"[Rs where 1Rs=60268km]";"[Rs where 1Rs=60268km]";"[Rs where 1Rs=60268km]";"[km where ellipsoid a,b=60268km and c=54364km]";"[E0, E1, E2, ... , E21, E22]";"[Renc where 1Renc=252.1km]";"[Renc where 1Renc=252.1km]";"[Renc where 1Renc=252.1km]";"[Renc where 1Renc=252.1km]";"[degrees]";"[UTC]";"[Rj where 1Rj=71492km]";"[degrees]";"[degrees using JRM09 model]";"[hours using JRM09 model]";"[Rj where 1Rj=71492km]";"[degrees]";"[Re where 1Re=6378.1366km]";"[degrees]";"[hours]";"[Re where 1Re=6378.1366km]"
2004-06-30T20:34:57.738Z;0;9.8090e+00;0;     0.241;  2151.912;  28207.557; 0;  28125.354;  28207.557;  29221.883;  27069.971;  0;   6.340; 249.009;;;  93.350; 339.375;   9.612;  -9.763; -10.102;   6.528;   6.340;   5.066;  -3.657;  -1.075;;;;;;;;;;;;;;;;;;
2004-06-30T20:35:13.737Z;0;9.7650e+00;0;     0.225;  2151.912;  28144.211; 0;  28061.822;  28144.211;  29158.398;  27006.486;  0;   6.337; 249.144;;;  93.484; 339.509;   9.613;  -9.759; -10.098;   6.524;   6.337;   5.064;  -3.654;  -1.074;;;;;;;;;;;;;;;;;;
2004-06-30T20:35:29.737Z;0;1.0630e+01;0;     0.192;  2151.912;  29354.463; 0;  29275.480;  29354.463;  30371.201;  28219.291;  0;   6.333; 249.278;;;  93.618; 339.643;   9.614;  -9.755; -10.094;   6.520;   6.333;   5.063;  -3.650;  -1.073;;;;;;;;;;;;;;;;;;
2004-06-30T20:35:45.737Z;0;1.0740e+01;0;     0.252;  2151.912;  29503.252; 0;  29424.670;  29503.252;  30520.291;  28368.379;  0;   6.330; 249.413;;;  93.752; 339.776;   9.615;  -9.751; -10.090;   6.516;   6.330;   5.061;  -3.647;  -1.072;;;;;;;;;;;;;;;;;;
2004-06-30T20:36:01.737Z;0;1.0180e+01;0;     0.382;  2155.356;  28737.445; 0;  28656.504;  28737.445;  29754.439;  27599.082;  0;   6.326; 249.548;;;  93.886; 339.910;   9.616;  -9.748; -10.087;   6.513;   6.326;   5.059;  -3.644;  -1.071;;;;;;;;;;;;;;;;;;
2004-06-30T20:36:17.737Z;0;1.0590e+01;0;     0.246;  2155.356;  29301.906; 0;  29222.527;  29301.906;  30320.070;  28164.715;  0;   6.322; 249.682;;;  94.020; 340.043;   9.617;  -9.744; -10.083;   6.509;   6.322;   5.057;  -3.640;  -1.070;;;;;;;;;;;;;;;;;;
2004-06-30T20:36:33.737Z;0;9.6580e+00;0;     0.335;  2155.356;  27990.754; 0;  27907.646;  27990.754;  29006.125;  26850.770;  0;   6.319; 249.817;;;  94.154; 340.176;   9.618;  -9.740; -10.079;   6.505;   6.319;   5.055;  -3.637;  -1.069;;;;;;;;;;;;;;;;;;
2004-06-30T20:36:49.737Z;0;9.6720e+00;0;     0.206;  2155.356;  28010.973; 0;  27927.926;  28010.973;  29026.389;  26871.033;  0;   6.315; 249.951;;;  94.288; 340.310;   9.619;  -9.736; -10.076;   6.501;   6.315;   5.054;  -3.633;  -1.068;;;;;;;;;;;;;;;;;;
2004-06-30T20:37:05.737Z;0;9.8490e+00;0;     0.153;  2163.756;  28264.555; 0;  28181.611;  28264.555;  29284.248;  27120.492;  0;   6.312; 250.086;;;  94.422; 340.443;   9.620;  -9.732; -10.072;   6.497;   6.312;   5.052;  -3.630;  -1.067;;;;;;;;;;;;;;;;;;
2004-06-30T20:37:37.737Z;0;1.1190e+01;0;     0.351;  2163.756;  30114.994; 0;  30037.160;  30114.994;  31138.516;  28974.760;  0;   6.304; 250.355;;;  94.691; 340.709;   9.622;  -9.724; -10.064;   6.490;   6.305;   5.048;  -3.623;  -1.065;;;;;;;;;;;;;;;;;;
2004-06-30T20:38:09.736Z;0;1.1050e+01;0;     0.271;  2177.028;  29923.920; 0;  29844.623;  29923.920;  30952.980;  28775.953;  0;   6.297; 250.623;;;  94.960; 340.975;   9.624;  -9.716; -10.057;   6.482;   6.297;   5.044;  -3.616;  -1.063;;;;;;;;;;;;;;;;;;
2004-06-30T20:38:41.736Z;0;1.1020e+01;0;     0.388;  2177.028;  29886.965; 0;  29807.570;  29886.965;  30915.953;  28738.924;  0;   6.290; 250.892;;;  95.229; 341.240;   9.626;  -9.708; -10.049;   6.474;   6.290;   5.041;  -3.610;  -1.061;;;;;;;;;;;;;;;;;;
2004-06-30T20:39:29.736Z;0;1.1210e+01;0;     0.337;  2195.200;  30141.836; 0;  30061.793;  30141.836;  31179.424;  28984.223;  0;   6.279; 251.295;;;  95.632; 341.637;   9.629;  -9.696; -10.038;   6.463;   6.279;   5.035;  -3.599;  -1.058;;;;;;;;;;;;;;;;;;
2004-06-30T20:40:01.736Z;0;1.1210e+01;0;     0.241;  2215.556;  30145.561; 0;  30064.033;  30145.561;  31192.215;  28976.658;  0;   6.272; 251.564;;;  95.902; 341.902;   9.632;  -9.688; -10.031;   6.455;   6.272;   5.032;  -3.592;  -1.055;;;;;;;;;;;;;;;;;;
2004-06-30T20:40:17.736Z;0;1.0990e+01;0;     0.378;  2215.556;  29853.846; 0;  29771.520;  29853.846;  30899.900;  28684.346;  0;   6.268; 251.698;;;  96.035; 342.037;   9.633;  -9.685; -10.027;   6.451;   6.269;   5.030;  -3.589;  -1.054;;;;;;;;;;;;;;;;;;
2004-06-30T20:40:33.735Z;0;1.1170e+01;0;     0.281;  2215.556;  30089.838; 0;  30008.160;  30089.838;  31136.379;  28920.822;  0;   6.265; 251.832;;;  96.169; 342.172;   9.634;  -9.681; -10.023;   6.447;   6.265;   5.028;  -3.586;  -1.053;;;;;;;;;;;;;;;;;;
2004-06-30T20:41:21.735Z;0;1.1500e+01;0;     0.266;  2233.700;  30538.012; 0;  30456.211;  30538.012;  31593.531;  29359.832;  0;   6.254; 252.235;;;  96.569; 342.577;   9.637;  -9.669; -10.012;   6.436;   6.254;   5.022;  -3.575;  -1.050;;;;;;;;;;;;;;;;;;
2004-06-30T20:41:37.735Z;0;1.1480e+01;0;     0.231;  2233.700;  30502.977; 0;  30421.080;  30502.977;  31558.426;  29324.725;  0;   6.250; 252.369;;;  96.702; 342.712;   9.638;  -9.665; -10.008;   6.432;   6.251;   5.021;  -3.572;  -1.049;;;;;;;;;;;;;;;;;;
2004-06-30T20:42:41.735Z;0;1.1340e+01;0;     0.120;  2245.432;  30321.902; 0;  30238.646;  30321.902;  31382.199;  29136.768;  0;   6.236; 252.906;;;  97.235; 343.252;   9.642;  -9.648;  -9.993;   6.416;   6.236;   5.013;  -3.558;  -1.045;;;;;;;;;;;;;;;;;;
2004-06-30T20:42:57.734Z;0;1.1370e+01;0;     0.196;  2245.432;  30367.318; 0;  30284.188;  30367.318;  31427.709;  29182.275;  0;   6.232; 253.040;;;  97.369; 343.388;   9.643;  -9.644;  -9.989;   6.412;   6.233;   5.011;  -3.555;  -1.044;;;;;;;;;;;;;;;;;;
2004-06-30T20:43:13.734Z;0;1.1330e+01;0;     0.227;  2265.340;  30307.074; 0;  30222.293;  30307.074;  31376.180;  29110.840;  0;   6.229; 253.174;;;  97.502; 343.523;   9.644;  -9.640;  -9.985;   6.409;   6.229;   5.010;  -3.552;  -1.043;;;;;;;;;;;;;;;;;;
2004-06-30T20:43:29.734Z;0;1.1650e+01;0;     0.301;  2265.340;  30728.836; 0;  30645.221;  30728.836;  31798.816;  29533.477;  0;   6.225; 253.308;;;  97.635; 343.659;   9.645;  -9.636;  -9.981;   6.405;   6.225;   5.008;  -3.548;  -1.042;;;;;;;;;;;;;;;;;;
2004-06-30T20:44:01.734Z;0;1.0480e+01;0;     0.236;  2281.412;  29156.742; 0;  29067.350;  29156.742;  30230.430;  27949.018;  0;   6.218; 253.576;;;  97.902; 343.930;   9.648;  -9.628;  -9.973;   6.397;   6.218;   5.004;  -3.541;  -1.040;;;;;;;;;;;;;;;;;;
2004-06-30T20:44:17.734Z;0;1.0740e+01;0;     0.215;  2281.412;  29517.959; 0;  29429.662;  29517.959;  30592.467;  28311.057;  0;   6.214; 253.710;;;  98.035; 344.065;   9.649;  -9.624;  -9.970;   6.393;   6.215;   5.002;  -3.538;  -1.039;;;;;;;;;;;;;;;;;;
2004-06-30T20:44:33.734Z;0;1.2520e+01;0;     0.248;  2281.412;  31853.496; 0;  31771.691;  31853.496;  32932.867;  30651.457;  0;   6.211; 253.844;;;  98.168; 344.201;   9.650;  -9.620;  -9.966;   6.389;   6.211;   5.000;  -3.534;  -1.038;;;;;;;;;;;;;;;;;;
2004-06-30T20:44:49.734Z;0;1.0990e+01;0;     0.288;  2281.412;  29861.176; 0;  29773.898;  29861.176;  30936.447;  28655.035;  0;   6.207; 253.978;;;  98.301; 344.337;   9.651;  -9.616;  -9.962;   6.385;   6.207;   4.999;  -3.531;  -1.037;;;;;;;;;;;;;;;;;;
2004-06-30T20:45:05.734Z;0;1.1140e+01;0;     0.249;  2293.676;  30064.518; 0;  29976.896;  30064.518;  31145.662;  28851.986;  0;   6.204; 254.112;;;  98.434; 344.473;   9.652;  -9.612;  -9.958;   6.382;   6.204;   4.997;  -3.528;  -1.036;;;;;;;;;;;;;;;;;;
2004-06-30T20:45:21.734Z;0;1.1750e+01;0;     0.216;  2293.676;  30870.680; 0;  30785.352;  30870.680;  31953.545;  29659.869;  0;   6.200; 254.246;;;  98.567; 344.608;   9.653;  -9.608;  -9.954;   6.378;   6.200;   4.995;  -3.524;  -1.035;;;;;;;;;;;;;;;;;;
2004-06-30T20:45:37.733Z;0;1.0510e+01;0;     0.200;  2293.676;  29196.447; 0;  29106.213;  29196.447;  30275.635;  27981.959;  0;   6.196; 254.380;;;  98.700; 344.744;   9.654;  -9.604;  -9.950;   6.374;   6.197;   4.993;  -3.521;  -1.034;;;;;;;;;;;;;;;;;;
2004-06-30T20:45:53.733Z;0;9.9500e+00;0;     0.107;  2293.676;  28418.891; 0;  28326.178;  28418.891;  29496.223;  27202.547;  0;   6.193; 254.514;;;  98.833; 344.880;   9.655;  -9.600;  -9.946;   6.370;   6.193;   4.991;  -3.517;  -1.033;;;;;;;;;;;;;;;;;;
2004-06-30T20:46:09.733Z;0;1.2310e+01;0;     0.316;  2306.752;  31585.086; 0;  31500.738;  31585.086;  32675.223;  30368.471;  0;   6.189; 254.648;;;  98.966; 345.016;   9.656;  -9.596;  -9.942;   6.366;   6.189;   4.989;  -3.514;  -1.032;;;;;;;;;;;;;;;;;;
2004-06-30T20:46:25.733Z;0;1.1870e+01;0;     0.322;  2306.752;  31022.365; 0;  30936.484;  31022.365;  32111.354;  29804.600;  0;   6.186; 254.782;;;  99.099; 345.152;   9.657;  -9.591;  -9.939;   6.362;   6.186;   4.987;  -3.510;  -1.031;;;;;;;;;;;;;;;;;;
2004-06-30T20:46:41.733Z;0;1.1900e+01;0;     0.322;  2306.752;  31066.480; 0;  30980.721;  31066.480;  32155.559;  29848.807;  0;   6.182; 254.916;;;  99.232; 345.288;   9.658;  -9.587;  -9.935;   6.358;   6.182;   4.986;  -3.507;  -1.030;;;;;;;;;;;;;;;;;;
2004-06-30T20:46:57.733Z;0;1.1480e+01;0;     0.262;  2306.752;  30509.961; 0;  30422.633;  30509.961;  31597.865;  29291.113;  0;   6.178; 255.049;;;  99.365; 345.424;   9.659;  -9.583;  -9.931;   6.354;   6.179;   4.984;  -3.504;  -1.029;;;;;;;;;;;;;;;;;;
2004-06-30T20:47:13.733Z;0;1.1840e+01;0;     0.292;  2322.572;  30986.260; 0;  30899.094;  30986.260;  32082.193;  29759.621;  0;   6.175; 255.183;;;  99.498; 345.561;   9.660;  -9.579;  -9.927;   6.351;   6.175;   4.982;  -3.500;  -1.027;;;;;;;;;;;;;;;;;;
2004-06-30T20:47:29.733Z;0;1.1400e+01;0;     0.208;  2322.572;  30402.564; 0;  30313.719;  30402.564;  31497.240;  29174.670;  0;   6.171; 255.317;;;  99.631; 345.697;   9.662;  -9.575;  -9.923;   6.347;   6.171;   4.980;  -3.497;  -1.026;;;;;;;;;;;;;;;;;;
2004-06-30T20:47:45.733Z;0;1.2100e+01;0;     0.259;  2322.572;  31328.801; 0;  31242.590;  31328.801;  32425.451;  30102.879;  0;   6.168; 255.451;;;  99.764; 345.833;   9.663;  -9.571;  -9.919;   6.343;   6.168;   4.978;  -3.493;  -1.025;;;;;;;;;;;;;;;;;;
2004-06-30T20:48:01.732Z;0;1.2220e+01;0;     0.302;  2336.516;  31472.539; 0;  31385.688;  31472.539;  32575.682;  30239.166;  0;   6.164; 255.584;;;  99.897; 345.970;   9.664;  -9.567;  -9.915;   6.339;   6.164;   4.976;  -3.490;  -1.024;;;;;;;;;;;;;;;;;;
2004-06-30T20:48:17.732Z;0;1.1450e+01;0;     0.216;  2336.516;  30479.699; 0;  30390.012;  30479.699;  31580.715;  29244.199;  0;   6.160; 255.718;;; 100.030; 346.106;   9.665;  -9.563;  -9.911;   6.335;   6.160;   4.974;  -3.486;  -1.023;;;;;;;;;;;;;;;;;;
2004-06-30T20:48:49.732Z;0;1.2400e+01;0;     0.351;  2336.516;  31709.051; 0;  31622.850;  31709.051;  32812.680;  30476.164;  0;   6.153; 255.986;;; 100.296; 346.379;   9.667;  -9.554;  -9.903;   6.327;   6.153;   4.971;  -3.480;  -1.021;;;;;;;;;;;;;;;;;;
2004-06-30T20:49:05.732Z;0;1.3480e+01;0;     0.225;  2354.548;  33058.262; 0;  32974.305;  33058.262;  34172.590;  31818.039;  0;   6.149; 256.119;;; 100.429; 346.516;   9.668;  -9.550;  -9.899;   6.323;   6.150;   4.969;  -3.476;  -1.020;;;;;;;;;;;;;;;;;;
2004-06-30T20:49:21.732Z;0;1.1380e+01;0;     0.162;  2354.548;  30390.135; 0;  30298.785;  30390.135;  31498.922;  29144.375;  0;   6.146; 256.253;;; 100.562; 346.652;   9.669;  -9.546;  -9.895;   6.320;   6.146;   4.967;  -3.473;  -1.019;;;;;;;;;;;;;;;;;;
2004-06-30T20:49:37.732Z;0;1.3240e+01;0;     0.318;  2354.548;  32757.002; 0;  32672.271;  32757.002;  33870.750;  31516.199;  0;   6.142; 256.387;;; 100.694; 346.789;   9.670;  -9.542;  -9.891;   6.316;   6.142;   4.965;  -3.469;  -1.018;;;;;;;;;;;;;;;;;;
2004-06-30T20:49:53.732Z;0;1.3970e+01;0;     0.161;  2354.548;  33648.684; 0;  33566.203;  33648.684;  34764.117;  32409.568;  0;   6.139; 256.520;;; 100.827; 346.926;   9.671;  -9.538;  -9.887;   6.312;   6.139;   4.963;  -3.466;  -1.017;;;;;;;;;;;;;;;;;;
2004-06-30T20:50:09.732Z;0;1.2400e+01;0;     0.314;  2369.892;  31706.943; 0;  31618.252;  31706.943;  32825.395;  30455.502;  0;   6.135; 256.654;;; 100.959; 347.062;   9.673;  -9.533;  -9.883;   6.308;   6.135;   4.961;  -3.462;  -1.016;;;;;;;;;;;;;;;;;;
2004-06-30T20:50:25.732Z;0;1.3320e+01;0;     0.339;  2369.892;  32863.234; 0;  32777.672;  32863.234;  33984.031;  31614.137;  0;   6.131; 256.787;;; 101.091; 347.197;   9.674;  -9.529;  -9.879;   6.304;   6.131;   4.960;  -3.459;  -1.015;;;;;;;;;;;;;;;;;;
2004-06-30T20:50:41.731Z;0;1.3580e+01;0;     0.256;  2369.892;  33178.719; 0;  33093.973;  33178.719;  34300.125;  31930.232;  0;   6.128; 256.921;;; 101.222; 347.332;   9.675;  -9.525;  -9.875;   6.300;   6.128;   4.958;  -3.456;  -1.014;;;;;;;;;;;;;;;;;;
2004-06-30T20:50:57.731Z;0;1.3570e+01;0;     0.270;  2369.892;  33170.547; 0;  33085.781;  33170.547;  34291.938;  31922.045;  0;   6.124; 257.054;;; 101.353; 347.468;   9.676;  -9.521;  -9.871;   6.296;   6.124;   4.956;  -3.452;  -1.013;;;;;;;;;;;;;;;;;;
2004-06-30T20:51:13.731Z;0;1.4130e+01;0;     0.170;  2386.524;  33837.312; 0;  33753.047;  33837.312;  34967.395;  32580.871;  0;   6.120; 257.188;;; 101.484; 347.603;   9.677;  -9.517;  -9.867;   6.292;   6.121;   4.954;  -3.449;  -1.012;;;;;;;;;;;;;;;;;;
2004-06-30T20:51:29.731Z;0;1.3660e+01;0;     0.272;  2386.524;  33276.238; 0;  33190.551;  33276.238;  34405.254;  32018.730;  0;   6.117; 257.322;;; 101.615; 347.738;   9.678;  -9.512;  -9.863;   6.289;   6.117;   4.952;  -3.445;  -1.011;;;;;;;;;;;;;;;;;;
2004-06-30T20:51:45.731Z;0;1.3560e+01;0;     0.284;  2386.524;  33155.953; 0;  33069.953;  33155.953;  34284.734;  31898.211;  0;   6.113; 257.455;;; 101.746; 347.874;   9.679;  -9.508;  -9.859;   6.285;   6.113;   4.950;  -3.442;  -1.010;;;;;;;;;;;;;;;;;;
2004-06-30T20:52:01.731Z;0;1.1600e+01;0;     0.212;  2401.756;  30681.043; 0;  30586.893;  30681.043;  31811.334;  29409.578;  0;   6.110; 257.588;;; 101.877; 348.009;   9.680;  -9.504;  -9.855;   6.281;   6.110;   4.948;  -3.438;  -1.009;;;;;;;;;;;;;;;;;;
2004-06-30T20:52:17.731Z;0;1.3750e+01;0;     0.235;  2401.756;  33383.934; 0;  33297.426;  33383.934;  34519.953;  32118.195;  0;   6.106; 257.722;;; 102.007; 348.144;   9.681;  -9.500;  -9.851;   6.277;   6.106;   4.946;  -3.435;  -1.008;;;;;;;;;;;;;;;;;;
2004-06-30T20:52:33.731Z;0;1.1220e+01;0;     0.125;  2401.756;  30174.975; 0;  30079.240;  30174.975;  31304.080;  28902.324;  0;   6.102; 257.855;;; 102.138; 348.280;   9.683;  -9.496;  -9.847;   6.273;   6.103;   4.945;  -3.432;  -1.007;;;;;;;;;;;;;;;;;;
2004-06-30T20:52:49.731Z;0;1.3970e+01;0;     0.198;  2401.756;  33650.316; 0;  33564.496;  33650.316;  34786.848;  32385.094;  0;   6.099; 257.989;;; 102.268; 348.415;   9.684;  -9.491;  -9.843;   6.269;   6.099;   4.943;  -3.428;  -1.006;;;;;;;;;;;;;;;;;;
2004-06-30T20:53:05.731Z;0;1.4220e+01;0;     0.187;  2417.688;  33950.715; 0;  33864.523;  33950.715;  35094.934;  32677.246;  0;   6.095; 258.122;;; 102.399; 348.550;   9.685;  -9.487;  -9.839;   6.265;   6.095;   4.941;  -3.425;  -1.005;;;;;;;;;;;;;;;;;;
2004-06-30T20:53:21.730Z;0;1.2160e+01;0;     0.244;  2417.688;  31406.432; 0;  31313.236;  31406.432;  32545.404;  30127.717;  0;   6.091; 258.255;;; 102.529; 348.685;   9.686;  -9.483;  -9.835;   6.261;   6.092;   4.939;  -3.421;  -1.004;;;;;;;;;;;;;;;;;;
2004-06-30T20:53:37.730Z;0;1.3370e+01;0;     0.333;  2417.688;  32920.926; 0;  32832.027;  32920.926;  34063.121;  31645.432;  0;   6.088; 258.389;;; 102.659; 348.820;   9.687;  -9.479;  -9.831;   6.258;   6.088;   4.937;  -3.418;  -1.002;;;;;;;;;;;;;;;;;;
2004-06-30T20:53:53.730Z;0;1.2410e+01;0;     0.335;  2417.688;  31724.691; 0;  31632.434;  31724.691;  32864.367;  30446.680;  0;   6.084; 258.522;;; 102.790; 348.956;   9.688;  -9.474;  -9.827;   6.254;   6.084;   4.935;  -3.414;  -1.001;;;;;;;;;;;;;;;;;;
2004-06-30T20:54:09.730Z;0;1.1320e+01;0;     0.129;  2435.664;  30317.059; 0;  30219.061;  30317.059;  31461.422;  29025.758;  0;   6.081; 258.655;;; 102.920; 349.091;   9.689;  -9.470;  -9.823;   6.250;   6.081;   4.933;  -3.411;  -1.000;;;;;;;;;;;;;;;;;;
2004-06-30T20:54:25.730Z;0;1.2240e+01;0;     0.315;  2435.664;  31505.719; 0;  31411.430;  31505.719;  32652.859;  30217.195;  0;   6.077; 258.789;;; 103.050; 349.226;   9.690;  -9.466;  -9.819;   6.246;   6.077;   4.931;  -3.407;  -0.999;;;;;;;;;;;;;;;;;;
2004-06-30T20:54:41.730Z;0;1.3440e+01;0;     0.352;  2435.664;  33008.844; 0;  32918.859;  33008.844;  34159.211;  31723.547;  0;   6.073; 258.922;;; 103.179; 349.361;   9.692;  -9.461;  -9.815;   6.242;   6.073;   4.930;  -3.404;  -0.998;;;;;;;;;;;;;;;;;;
2004-06-30T20:54:57.730Z;0;1.2740e+01;0;     0.361;  2435.664;  32143.268; 0;  32050.854;  32143.268;  33291.812;  30856.150;  0;   6.070; 259.055;;; 103.309; 349.496;   9.693;  -9.457;  -9.811;   6.238;   6.070;   4.928;  -3.401;  -0.997;;;;;;;;;;;;;;;;;;
2004-06-30T20:55:13.730Z;0;1.3430e+01;0;     0.354;  2446.752;  33001.418; 0;  32910.590;  33001.418;  34156.695;  31709.945;  0;   6.066; 259.189;;; 103.439; 349.631;   9.694;  -9.453;  -9.807;   6.234;   6.066;   4.926;  -3.397;  -0.996;;;;;;;;;;;;;;;;;;
2004-06-30T20:55:29.730Z;0;1.2260e+01;0;     0.313;  2446.752;  31542.855; 0;  31447.816;  31542.855;  32694.979;  30248.227;  0;   6.062; 259.322;;; 103.569; 349.766;   9.695;  -9.449;  -9.803;   6.230;   6.063;   4.924;  -3.394;  -0.995;;;;;;;;;;;;;;;;;;
2004-06-30T20:55:45.729Z;0;1.2870e+01;0;     0.414;  2446.752;  32311.377; 0;  32218.605;  32311.377;  33465.199;  31018.447;  0;   6.059; 259.455;;; 103.698; 349.901;   9.696;  -9.444;  -9.799;   6.226;   6.059;   4.922;  -3.390;  -0.994;;;;;;;;;;;;;;;;;;
2004-06-30T20:56:33.729Z;0;1.1740e+01;0;     0.132;  2464.196;  30869.352; 0;  30770.840;  30869.352;  32027.596;  29563.400;  0;   6.048; 259.854;;; 104.086; 350.306;   9.699;  -9.431;  -9.786;   6.215;   6.048;   4.916;  -3.380;  -0.991;;;;;;;;;;;;;;;;;;
2004-06-30T20:56:49.729Z;0;1.1770e+01;0;     0.126;  2464.196;  30903.242; 0;  30804.840;  30903.242;  32061.568;  29597.371;  0;   6.044; 259.987;;; 104.215; 350.441;   9.701;  -9.427;  -9.782;   6.211;   6.044;   4.914;  -3.376;  -0.990;;;;;;;;;;;;;;;;;;
2004-06-30T20:57:05.729Z;0;1.3550e+01;0;     0.204;  2487.240;  33153.184; 0;  33059.754;  33153.184;  34326.754;  31839.516;  0;   6.041; 260.121;;; 104.344; 350.576;   9.702;  -9.423;  -9.778;   6.207;   6.041;   4.913;  -3.373;  -0.989;;;;;;;;;;;;;;;;;;
2004-06-30T20:57:21.729Z;0;1.2060e+01;0;     0.182;  2487.240;  31288.330; 0;  31189.312;  31288.330;  32457.717;  29970.477;  0;   6.037; 260.254;;; 104.473; 350.711;   9.703;  -9.418;  -9.774;   6.203;   6.037;   4.911;  -3.369;  -0.988;;;;;;;;;;;;;;;;;;
2004-06-30T20:57:37.729Z;0;1.1910e+01;0;     0.117;  2487.240;  31094.482; 0;  30994.846;  31094.482;  32263.404;  29776.164;  0;   6.033; 260.387;;; 104.602; 350.846;   9.704;  -9.414;  -9.770;   6.199;   6.033;   4.909;  -3.366;  -0.987;;;;;;;;;;;;;;;;;;
2004-06-30T20:57:53.729Z;0;1.1750e+01;0;     0.118;  2487.240;  30879.266; 0;  30778.932;  30879.266;  32047.666;  29560.426;  0;   6.030; 260.520;;; 104.731; 350.981;   9.705;  -9.410;  -9.766;   6.195;   6.030;   4.907;  -3.363;  -0.986;;;;;;;;;;;;;;;;;;
2004-06-30T20:58:09.729Z;0;1.3330e+01;0;     0.227;  2504.292;  32875.719; 0;  32780.199;  32875.719;  34056.250;  31551.959;  0;   6.026; 260.653;;; 104.860; 351.115;   9.706;  -9.405;  -9.762;   6.191;   6.026;   4.905;  -3.359;  -0.985;;;;;;;;;;;;;;;;;;
2004-06-30T20:58:25.728Z;0;1.2670e+01;0;     0.196;  2504.292;  32058.410; 0;  31960.447;  32058.410;  33237.113;  30732.820;  0;   6.022; 260.786;;; 104.988; 351.250;   9.707;  -9.401;  -9.757;   6.187;   6.023;   4.903;  -3.356;  -0.984;;;;;;;;;;;;;;;;;;
2004-06-30T20:58:41.728Z;0;1.2310e+01;0;     0.153;  2504.292;  31600.348; 0;  31500.961;  31600.348;  32777.984;  30273.689;  0;   6.019; 260.919;;; 105.117; 351.385;   9.709;  -9.396;  -9.753;   6.184;   6.019;   4.901;  -3.352;  -0.983;;;;;;;;;;;;;;;;;;
2004-06-30T20:58:57.728Z;0;1.1920e+01;0;     0.123;  2504.292;  31101.061; 0;  31000.072;  31101.061;  32277.496;  29773.205;  0;   6.015; 261.052;;; 105.245; 351.520;   9.710;  -9.392;  -9.749;   6.180;   6.015;   4.899;  -3.349;  -0.982;;;;;;;;;;;;;;;;;;
2004-06-30T20:59:13.728Z;0;1.2390e+01;0;     0.133;  2520.420;  31704.035; 0;  31603.691;  31704.035;  32889.016;  30368.598;  0;   6.011; 261.185;;; 105.374; 351.655;   9.711;  -9.388;  -9.745;   6.176;   6.012;   4.897;  -3.345;  -0.981;;;;;;;;;;;;;;;;;;
2004-06-30T20:59:29.728Z;0;1.2640e+01;0;     0.195;  2520.420;  32030.043; 0;  31930.725;  32030.043;  33215.793;  30695.373;  0;   6.008; 261.317;;; 105.502; 351.789;   9.712;  -9.383;  -9.741;   6.172;   6.008;   4.895;  -3.342;  -0.979;;;;;;;;;;;;;;;;;;
2004-06-30T21:00:17.728Z;0;1.3840e+01;0;     0.201;  2539.180;  33498.570; 0;  33402.195;  33498.570;  34695.906;  32156.727;  0;   5.997; 261.716;;; 105.889; 352.194;   9.715;  -9.370;  -9.728;   6.160;   5.997;   4.890;  -3.331;  -0.976;;;;;;;;;;;;;;;;;;
2004-06-30T21:00:33.728Z;0;1.6330e+01;0;     0.129;  2539.180;  36382.633; 0;  36293.918;  36382.633;  37585.707;  35046.527;  0;   5.993; 261.849;;; 106.020; 352.328;   9.717;  -9.366;  -9.724;   6.156;   5.993;   4.888;  -3.328;  -0.975;;;;;;;;;;;;;;;;;;
2004-06-30T21:00:49.727Z;0;1.6070e+01;0;     0.171;  2539.180;  36086.262; 0;  35996.816;  36086.262;  37288.789;  34749.609;  0;   5.990; 261.982;;; 106.151; 352.463;   9.718;  -9.361;  -9.720;   6.152;   5.990;   4.886;  -3.325;  -0.974;;;;;;;;;;;;;;;;;;
2004-06-30T21:01:05.727Z;0;1.3670e+01;0;     0.154;  2553.684;  33296.684; 0;  33198.613;  33296.684;  34500.000;  31946.314;  0;   5.986; 262.114;;; 106.282; 352.597;   9.719;  -9.357;  -9.716;   6.148;   5.986;   4.884;  -3.321;  -0.973;;;;;;;;;;;;;;;;;;
2004-06-30T21:01:21.727Z;0;1.3660e+01;0;     0.151;  2553.684;  33293.367; 0;  33195.285;  33293.367;  34496.676;  31942.992;  0;   5.982; 262.247;;; 106.413; 352.732;   9.720;  -9.352;  -9.711;   6.145;   5.982;   4.882;  -3.318;  -0.972;;;;;;;;;;;;;;;;;;
2004-06-30T21:01:37.727Z;0;1.4330e+01;0;     0.202;  2553.684;  34088.391; 0;  33992.602;  34088.391;  35293.418;  32739.732;  0;   5.979; 262.380;;; 106.543; 352.867;   9.721;  -9.348;  -9.707;   6.141;   5.979;   4.880;  -3.314;  -0.971;;;;;;;;;;;;;;;;;;
2004-06-30T21:01:53.727Z;0;1.3990e+01;0;     0.253;  2553.684;  33689.883; 0;  33592.961;  33689.883;  34894.059;  32340.375;  0;   5.975; 262.513;;; 106.674; 353.001;   9.722;  -9.343;  -9.703;   6.137;   5.975;   4.878;  -3.311;  -0.970;;;;;;;;;;;;;;;;;;